User: anonymous   Login
Location: Angwan Shehu
(11.2514°N, 7.4613°E)
Time: 01:20:31
(UTC+00:00)
Language:

Tiros 1 - Orbit

View from above orbital plane
View from above orbital plane
View from above satellite
View from above satellite

Ground track
Ground track

The orbit data is extracted from the following two-line orbital elements,

1 00029U 60002B   21110.53319830 -.00000030  00000-0  26524-4 0  9993
2 00029  48.3796 299.3496 0023644 106.6407 253.7103 14.74421304263850
Epoch (UTC): 20 April 2021 12:47:48
Eccentricity: 0.0023644
inclination: 48.3796°
perigee height: 630 km
apogee height: 663 km
right ascension of ascending node: 299.3496°
argument of perigee: 106.6407°
revolutions per day: 14.74421304
mean anomaly at epoch: 253.7103°
orbit number at epoch: 26385

The dashed part of the orbit path shows where the satellite is in the earth's shadow,  

DLR